Location: Baia Mare
(47.6567°N, 23.5850°E)
Time: 11:40:10
(UTC+02:00)

ISS - Pass Details

Date: 27 January 2019
Orbit: 404 x 407 km, 51.6° (Epoch: 16 January)

Event Time Altitude Azimuth Distance (km) Brightness Sun altitude
Rises 19:19:26 0° 261° (W) 2,322 1.6 -20.3°
Reaches altitude 10° 19:21:33 10° 267° (W) 1,464 0.2 -20.7°
Enters shadow 19:24:32 51° 326° (NW) 519 -3.2 -21.2°
